Find Starlink 30294

NORAD ID: 57651 Int'l Des: 2023-122 Owner: SPXS Country: US Constellation: starlink operational
LEOCIRCULAR

实时位置

正在加载3D地球...

关于 Starlink 30294

正在加载描述...

即将过境

Passes for default location (London). Set your location on the main map for personalized predictions.

高度历史

Loading altitude history...

两行轨道根数

1 57651U 23122V 26105.06574387 .00000075 00000-0 12239-4 0 9991
2 57651 43.0033 235.7558 0001280 267.4862 92.5843 15.27578029147908
Epoch: Apr 15, 2026 • Age: 11 hours

当前状态

高度 487.0 km
速度 7.63 km/s
星下点 42.70°N, 84.71°W
发射日期 Aug 17, 2023
运行时间 2.6 years
类型 internet

技术详情

分类 Payload
质量 730.00 kg
干质量 700.00 kg
总质量 730.00 kg
长度 0.30 m
直径 4.10 m
跨度 29.00 m
形状 Box + pan
制造商 SPXS
平台类型 Starlink V2M
阶段状态 In Orbit
所有者/国家 SPXS/US

Most Searched